Terminal Aerodrome Forecast
Issued by NWS Houston/Galveston, TX

Home | Current Version | Previous Version | Text Only | Print | Product List | Glossary On
Versions: 1 2 3 4 5 6 7 8 9 10 11 12 13 14 15 16 17 18 19 20 21 22 23 24 25 26 27 28 29 30 31 32 33 34 35 36 37 38 39 40 41 42 43 44 45 46 47 48 49 50
000
FTUS44 KHGX 240901 AAA
TAFCLL
TAF AMD
KCLL 240901Z 2409/2506 12007KT P6SM FEW012 SCT045
      TEMPO 2409/2413 SCT008 BKN015
     FM241300 13008KT P6SM SCT008 BKN015
     FM241600 15009KT P6SM BKN025
     FM241800 15011G17KT P6SM BKN035
     FM250200 14007KT P6SM SCT250=

USA.gov is the U.S. government's official web portal to all federal, state and local government web resources and services.